Wind_Speed
21 23 28 21 19 18 20 20 21 18 16 21 22 24 21 21 25 25 26 27 27 26 27 29 27 27 27 27 26 25 24 23 23 24 23 22 21 20 18 17 16 15 13 12
22 27 18 18 21 22 23 24 27 26 25 29 31 34 31 31 34 33 31 31 29 30 32 32 32 31 31 31 30 28 26 25 24 25 24 22 22 21 20 19 17 16 13 13
26 22 17 19 22 24 25 27 26 25 25 29 30 40 38 35 36 35 35 33 34 33 35 36 37 36 36 34 32 31 28 25 24 25 24 24 23 22 21 20 19 17 16 16
27 28 29 28 28 22 27 24 24 25 26 27 20 17 38 38 38 37 35 33 32 34 35 36 36 36 35 34 35 34 29 26 26 26 25 24 23 21 21 21 20 19 18 19
35 30 29 31 32 26 30 25 24 24 28 30 33 23 32 27 38 37 32 27 23 26 30 34 35 34 34 34 31 32 30 28 28 26 25 24 23 23 22 21 20 20 21 22
40 39 35 33 27 24 28 27 26 25 24 13 37 31 28 35 37 32 21 19 19 21 23 29 33 34 35 34 32 32 32 30 29 27 24 24 23 22 20 20 20 22 23 24
42 45 43 40 33 25 27 22 5 5 4 9 19 23 40 30 34 28 21 21 30 26 28 27 28 29 30 29 30 30 32 30 29 27 25 25 24 23 22 22 23 24 25 26
36 23 46 44 47 36 33 34 17 7 5 5 9 15 18 20 21 32 31 26 22 29 25 25 26 24 26 28 31 30 31 31 30 27 26 26 26 24 23 24 26 27 28 29
17 24 22 27 33 36 32 42 38 29 19 10 19 36 44 40 35 16 16 24 27 29 26 25 24 22 24 29 31 29 30 31 29 28 28 27 27 26 26 27 29 30 30 30
28 17 20 24 25 35 40 27 19 24 2 6 9 20 26 20 17 12 12 14 21 21 20 20 22 22 23 27 30 30 31 30 29 29 29 29 29 29 29 30 31 31 32 32
43 29 16 18 31 38 37 38 24 18 19 5 3 12 8 6 6 14 7 9 17 20 20 17 18 21 24 27 29 30 31 32 32 32 32 31 31 31 31 32 33 33 34 34
38 24 34 30 23 33 40 39 42 18 11 22 21 41 30 25 28 19 22 23 23 23 27 20 18 21 24 28 30 31 31 33 34 33 33 34 33 33 34 34 34 35 35 35
26 25 19 17 29 32 39 41 39 45 25 36 14 38 13 20 20 15 21 25 23 24 29 32 27 22 25 28 30 31 32 34 36 36 36 36 35 35 36 36 36 36 37 37
28 28 35 36 16 28 42 43 47 45 39 42 50 55 44 32 40 43 43 36 24 24 23 27 27 27 26 28 30 32 34 36 38 39 38 36 36 37 36 37 38 39 39 39
43 44 43 52 47 35 34 38 43 54 63 33 72 50 63 56 48 46 41 39 37 33 31 31 32 29 27 28 29 33 35 37 39 41 39 36 39 39 39 39 40 41 40 40
42 48 42 53 51 52 52 48 54 55 56 59 66 68 52 51 50 49 49 45 41 38 33 32 31 38 34 31 30 32 35 38 42 41 38 39 42 40 40 39 42 42 42 42
50 50 45 46 49 43 32 72 57 57 58 57 59 71 59 57 58 57 52 52 52 48 42 43 37 33 39 39 33 32 35 37 42 40 38 42 43 40 41 42 43 44 44 42
49 52 51 45 31 17 67 60 58 64 67 64 66 67 62 62 51 46 54 54 48 49 49 44 40 35 33 33 34 36 38 40 42 39 43 43 41 43 43 44 43 46 45 42
39 48 33 26 35 26 35 54 41 39 53 53 62 55 45 36 40 45 35 31 36 42 41 34 34 37 33 35 37 38 39 40 42 45 44 42 45 44 45 40 43 45 44 44
53 58 48 21 16 12 48 43 46 30 42 51 44 49 44 37 43 43 30 32 34 35 35 33 31 35 38 37 40 39 39 44 46 47 48 47 47 44 38 35 38 40 43 41
43 53 52 48 30 20 41 35 17 27 37 29 19 25 26 31 30 30 25 29 31 30 28 28 30 27 27 29 32 37 43 47 49 48 36 34 35 37 35 36 37 39 37 33
21 25 38 41 31 26 42 34 32 34 34 28 17 15 20 22 23 27 29 24 25 25 24 23 24 27 28 30 32 35 40 45 41 39 34 32 32 32 30 31 33 31 32 33
30 30 20 20 14 33 32 30 28 30 33 31 28 28 28 26 26 26 27 27 23 21 19 19 21 25 28 26 27 27 25 25 26 28 28 28 27 26 26 28 30 32 32 32
34 35 35 31 32 22 19 16 13 14 19 21 20 22 24 25 25 27 24 23 18 15 16 20 26 25 22 23 24 25 26 27 26 25 25 24 25 26 28 29 29 30 29 30
34 32 38 36 40 39 30 16 20 22 25 23 23 24 20 19 20 19 19 17 17 17 17 16 18 20 21 22 22 22 23 23 24 25 25 25 25 25 24 25 26 28 30 32
42 41 37 38 30 22 18 17 24 24 28 29 25 23 21 20 18 18 17 16 16 17 17 18 20 20 20 20 20 21 22 23 23 23 22 22 21 22 23 25 27 30 33 35
Wind_Direction
251 250 253 270 274 270 268 266 263 257 262 271 266 263 260 266 269 269 274 277 275 271 265 261 259 256 259 261 262 269 271 270 258 244 241 243 244 244 240 238 236 234 235 242
245 253 268 264 259 256 256 258 260 269 265 264 269 269 268 262 266 274 278 274 273 270 265 264 263 264 264 261 262 267 268 266 251 239 242 244 242 239 237 231 226 227 231 239
253 256 260 258 257 253 255 256 264 267 274 277 280 276 268 268 271 273 273 275 272 271 269 265 262 264 264 263 263 264 264 260 245 237 242 244 239 238 234 228 225 226 231 234
260 253 255 257 257 256 259 262 264 268 272 271 272 281 275 275 277 275 276 278 281 277 270 267 266 265 267 264 260 259 258 252 238 236 241 239 236 235 234 231 231 230 232 238
249 258 256 254 258 254 261 266 264 264 264 268 264 270 277 280 279 283 293 285 275 275 270 265 265 266 265 261 259 255 251 245 236 236 239 238 237 235 234 235 236 237 239 244
248 251 251 256 252 248 254 256 261 263 263 260 263 255 270 269 283 292 293 280 286 285 282 270 261 256 256 255 254 254 245 243 234 235 237 236 235 235 240 243 244 244 247 253
241 243 246 248 246 236 231 231 246 271 227 243 263 252 257 269 283 293 281 277 294 285 273 273 261 251 252 255 255 257 243 241 233 232 234 235 235 234 235 241 245 250 255 260
225 239 243 245 243 234 227 224 208 214 216 255 246 243 269 287 281 288 294 288 275 287 276 271 262 251 244 248 251 253 238 237 230 232 234 233 234 236 241 245 250 254 258 262
223 236 237 242 242 234 223 219 234 251 275 287 257 265 272 274 277 282 284 284 285 277 275 268 263 262 254 248 246 247 233 231 229 232 232 233 235 240 244 248 252 255 259 264
233 247 256 236 225 220 223 237 208 216 227 255 257 260 254 270 284 279 290 290 288 289 286 271 269 263 264 252 242 236 228 226 230 231 230 232 236 241 246 250 254 257 262 266
232 238 245 223 216 216 212 220 214 215 221 207 286 260 270 182 270 297 260 288 288 295 295 284 267 256 258 247 240 230 225 228 229 228 230 233 238 243 249 252 255 259 263 267
231 231 243 237 236 226 224 218 209 202 199 226 251 263 251 270 283 269 270 272 268 278 277 286 273 257 250 246 236 231 232 231 230 230 232 235 239 245 251 254 257 261 264 268
232 220 239 245 233 225 221 223 232 225 243 242 224 259 256 258 257 269 278 287 288 270 261 274 282 277 259 244 236 236 236 234 231 231 232 235 240 248 252 255 259 262 265 270
248 235 231 233 232 229 224 229 233 231 232 240 244 253 251 255 269 280 291 288 276 275 268 274 272 272 260 246 240 238 240 236 234 233 232 236 244 248 253 257 260 263 266 270
240 239 241 248 248 245 247 246 242 232 246 226 255 253 263 266 277 284 283 278 276 273 270 264 267 276 274 257 252 248 243 239 238 237 237 240 246 249 251 257 261 262 265 270
235 235 240 248 247 248 252 254 252 248 251 246 256 261 267 268 273 281 286 281 276 279 274 275 267 255 260 265 261 262 255 247 241 237 237 244 246 250 255 259 262 263 264 266
243 241 237 244 247 246 244 248 243 248 249 247 246 263 270 273 277 282 283 284 279 278 276 274 270 265 257 256 263 263 260 253 246 237 239 244 249 252 256 257 260 261 264 263
239 229 229 237 244 224 247 258 253 250 252 245 253 270 270 276 284 283 280 278 274 274 275 272 262 256 253 255 256 259 254 249 236 238 243 245 248 250 254 256 257 261 262 261
237 231 227 226 230 236 244 250 242 231 255 257 256 266 275 274 276 264 265 268 266 266 267 262 254 239 242 245 252 257 256 240 232 239 243 242 244 251 252 256 258 258 257 260
243 245 232 226 229 232 250 256 258 255 256 266 261 271 270 273 266 276 267 260 264 264 261 258 252 243 245 250 252 248 235 231 236 239 241 248 259 255 257 257 256 258 257 265
226 225 220 228 236 246 250 253 241 199 252 270 262 257 252 253 259 269 264 257 256 255 253 248 245 247 251 241 243 244 247 244 245 245 251 249 249 253 257 253 254 257 267 281
230 213 225 233 240 239 240 248 234 252 249 248 256 229 229 243 257 260 262 257 250 248 247 246 241 245 246 254 256 254 254 255 254 249 252 254 257 257 255 255 259 272 273 273
242 244 242 226 238 243 250 247 245 238 241 244 242 239 255 258 243 245 255 268 260 249 241 232 231 235 243 255 257 258 256 255 255 257 257 254 251 253 258 264 267 268 270 272
240 248 247 261 245 233 240 245 258 269 264 263 262 263 261 265 253 255 249 251 249 242 240 239 242 251 253 251 250 250 251 253 253 252 252 254 258 261 262 264 267 270 272 274
249 244 239 242 253 265 264 267 258 256 257 255 250 263 248 243 238 242 242 238 237 239 242 243 242 242 242 243 247 251 254 256 257 258 260 261 260 262 265 269 272 275 277 277
249 240 232 240 253 263 269 257 248 247 244 241 255 249 230 229 227 228 228 232 238 246 249 251 250 247 248 251 256 260 261 263 264 264 264 264 266 271 277 279 279 279 279 279
Height
3152 3153 3152 3157 3158 3159 3159 3158 3157 3158 3159 3156 3155 3154 3156 3156 3155 3155 3155 3156 3155 3156 3157 3156 3157 3158 3159 3160 3161 3161 3161 3161 3161 3162 3163 3164 3165 3166 3167 3168 3169 3170 3170 3171
3149 3145 3152 3153 3152 3153 3153 3153 3152 3153 3153 3152 3150 3145 3149 3149 3148 3148 3149 3148 3148 3149 3148 3148 3150 3151 3152 3153 3154 3155 3155 3155 3155 3157 3159 3160 3161 3162 3163 3163 3164 3165 3166 3167
3142 3145 3146 3148 3148 3148 3148 3147 3149 3150 3148 3145 3143 3133 3137 3141 3140 3141 3140 3140 3140 3139 3140 3140 3141 3143 3143 3145 3147 3148 3148 3149 3150 3151 3153 3154 3155 3157 3158 3159 3160 3161 3162 3163
3135 3139 3140 3141 3142 3146 3142 3145 3146 3146 3145 3141 3139 3124 3125 3129 3130 3132 3132 3131 3131 3130 3130 3130 3131 3133 3135 3137 3138 3140 3141 3142 3143 3145 3147 3149 3150 3152 3153 3154 3155 3157 3158 3159
3125 3129 3132 3133 3135 3140 3137 3141 3142 3141 3139 3136 3133 3131 3110 3118 3117 3121 3123 3121 3121 3120 3119 3120 3122 3125 3126 3127 3130 3132 3134 3136 3137 3139 3142 3143 3145 3146 3148 3149 3151 3152 3153 3154
3119 3122 3125 3125 3130 3134 3135 3135 3138 3136 3134 3128 3125 3125 3101 3110 3111 3113 3115 3114 3114 3113 3112 3111 3112 3114 3116 3118 3121 3123 3126 3129 3131 3133 3136 3137 3139 3141 3143 3145 3147 3147 3148 3148
3109 3110 3114 3118 3122 3126 3128 3132 3134 3133 3131 3116 3115 3111 3092 3101 3105 3105 3106 3107 3106 3105 3104 3103 3103 3104 3108 3111 3114 3116 3119 3122 3125 3127 3129 3132 3134 3136 3138 3140 3141 3142 3142 3142
3102 3105 3103 3104 3108 3115 3118 3122 3122 3127 3122 3110 3108 3092 3085 3092 3098 3099 3099 3097 3096 3096 3095 3096 3097 3098 3100 3103 3105 3108 3111 3115 3118 3120 3123 3126 3128 3131 3133 3134 3135 3136 3136 3137
3095 3095 3094 3096 3102 3109 3111 3109 3116 3117 3111 3109 3095 3085 3082 3086 3089 3092 3092 3090 3087 3088 3088 3089 3090 3092 3094 3095 3098 3101 3105 3108 3111 3114 3117 3120 3123 3125 3127 3128 3129 3129 3130 3130
3090 3090 3087 3090 3095 3097 3100 3106 3111 3112 3113 3109 3084 3078 3074 3078 3083 3085 3086 3083 3082 3082 3081 3082 3084 3086 3087 3089 3091 3094 3098 3102 3106 3108 3111 3114 3117 3119 3120 3121 3122 3123 3123 3123
3083 3085 3083 3084 3082 3083 3091 3093 3098 3099 3097 3094 3088 3067 3068 3073 3076 3079 3081 3081 3080 3077 3077 3077 3078 3079 3081 3082 3084 3088 3092 3095 3098 3101 3104 3108 3110 3112 3113 3114 3115 3116 3116 3115
3073 3077 3074 3075 3077 3079 3080 3079 3084 3085 3084 3083 3078 3045 3065 3068 3072 3074 3076 3076 3076 3075 3073 3072 3073 3074 3075 3077 3079 3082 3086 3089 3092 3095 3098 3101 3103 3105 3105 3106 3107 3108 3108 3108
3065 3069 3071 3069 3071 3069 3070 3073 3077 3078 3077 3068 3073 3033 3055 3061 3064 3068 3070 3071 3071 3070 3068 3066 3067 3068 3069 3071 3074 3077 3079 3082 3084 3087 3090 3093 3095 3096 3097 3098 3099 3100 3100 3099
3059 3060 3056 3051 3055 3059 3061 3063 3066 3070 3068 3054 3049 3040 3050 3053 3057 3062 3063 3063 3064 3064 3064 3062 3062 3063 3063 3064 3067 3070 3072 3074 3076 3079 3081 3084 3087 3088 3089 3090 3091 3091 3091 3090
3048 3047 3048 3042 3051 3053 3051 3053 3057 3053 3041 3055 3023 3042 3034 3047 3050 3052 3055 3055 3055 3056 3057 3057 3056 3056 3057 3058 3060 3062 3064 3067 3068 3071 3074 3077 3079 3080 3080 3081 3081 3082 3082 3081
3037 3032 3041 3034 3038 3042 3042 3043 3037 3037 3037 3040 3031 3025 3037 3039 3040 3041 3042 3044 3044 3046 3049 3049 3049 3049 3050 3051 3052 3054 3057 3059 3059 3062 3065 3068 3069 3070 3071 3072 3072 3072 3072 3070
3028 3027 3030 3021 3027 3034 3031 3006 3024 3027 3027 3027 3025 3002 3028 3028 3028 3030 3031 3032 3032 3035 3037 3037 3038 3040 3041 3043 3045 3046 3048 3050 3051 3053 3055 3057 3059 3061 3061 3061 3061 3061 3061 3060
3011 3015 3017 3012 3021 3012 2989 3003 3006 3009 3011 3017 3014 3004 3015 3016 3018 3016 3015 3018 3018 3020 3022 3024 3027 3030 3032 3034 3034 3035 3036 3039 3041 3044 3046 3047 3049 3048 3048 3049 3050 3050 3051 3049
2999 3002 3002 3001 2998 2997 2988 2985 2992 2996 2990 2999 3002 3001 3005 3008 3006 2996 3006 3007 3005 3006 3009 3011 3013 3016 3019 3022 3024 3025 3027 3029 3031 3032 3034 3035 3035 3036 3036 3038 3039 3040 3040 3039
2987 2989 2989 2990 2986 2983 2974 2983 2991 2996 2987 2987 2994 2991 2994 2998 2992 2983 2997 2996 2996 2996 2997 3000 3002 3004 3008 3011 3013 3014 3016 3019 3020 3021 3023 3025 3026 3027 3027 3028 3029 3030 3030 3031
2973 2974 2971 2974 2973 2971 2972 2973 2980 2983 2974 2975 2978 2981 2982 2982 2984 2982 2984 2985 2985 2985 2986 2989 2992 2996 2999 3002 3004 3006 3007 3009 3011 3012 3015 3015 3016 3017 3018 3019 3021 3022 3022 3022
2966 2964 2962 2965 2963 2961 2963 2965 2967 2967 2969 2970 2971 2974 2973 2974 2975 2975 2974 2975 2975 2976 2978 2981 2984 2988 2990 2993 2995 2998 3000 3001 3001 3003 3004 3006 3006 3008 3010 3012 3013 3013 3014 3014
2958 2957 2956 2956 2950 2952 2954 2957 2957 2959 2960 2961 2962 2965 2966 2966 2968 2967 2967 2968 2968 2969 2972 2974 2978 2981 2983 2985 2988 2990 2991 2992 2993 2995 2997 2999 2999 3001 3003 3004 3005 3006 3005 3005
2942 2944 2945 2948 2946 2947 2948 2948 2949 2952 2955 2955 2957 2958 2958 2958 2959 2960 2961 2961 2962 2964 2967 2970 2973 2975 2976 2979 2981 2982 2985 2986 2988 2990 2991 2992 2993 2994 2996 2996 2996 2996 2996 2996
2936 2934 2935 2935 2939 2941 2940 2942 2945 2946 2948 2949 2949 2951 2952 2952 2953 2954 2955 2957 2958 2960 2962 2965 2967 2969 2970 2973 2975 2978 2979 2981 2982 2984 2986 2986 2986 2986 2987 2987 2987 2987 2987 2987
2925 2925 2926 2927 2931 2931 2934 2935 2937 2939 2941 2942 2943 2944 2946 2947 2948 2949 2950 2952 2954 2956 2958 2960 2963 2964 2966 2968 2970 2972 2974 2974 2976 2977 2977 2978 2978 2978 2978 2978 2978 2979 2978 2977